Location: Bothwell
(42.3833°S, 147.0000°E)
Time: 23:42:01
(UTC+10:00)

XW-2C - Visible Passes

Search period start: 01 October 2022 00:00
Search period end: 11 October 2022 01:00
Orbit: 496 x 515 km, 97.5° (Epoch: 01 October)

Date Brightness Start Highest point End Pass type
(mag) Time Alt. Az. Time Alt. Az. Time Alt. Az.
01 Oct ? 04:50:40 10° NE 04:54:00 30° ESE 04:57:22 10° S visible
01 Oct ? 19:28:18 10° SSW 19:30:37 16° WSW 19:32:55 10° WNW visible
02 Oct ? 05:33:29 10° ENE 05:36:15 19° ESE 05:39:01 10° SSE visible
02 Oct ? 20:09:47 10° SSW 20:12:53 24° WSW 20:15:54 10° NW visible
03 Oct ? 05:16:50 10° E 05:18:31 13° ESE 05:20:13 10° SE visible
03 Oct ? 19:51:33 10° S 19:55:04 39° WSW 19:58:32 10° NW visible
06 Oct ? 05:54:48 10° NE 05:58:14 33° ESE 06:01:40 10° S visible
06 Oct ? 20:32:43 10° SSW 20:34:47 14° WSW 20:36:49 10° W visible
07 Oct ? 05:37:30 10° ENE 05:40:24 21° ESE 05:43:19 10° SSE visible
07 Oct ? 20:14:03 10° SSW 20:16:59 22° WSW 20:19:54 10° WNW visible
08 Oct ? 05:20:38 10° E 05:22:36 14° ESE 05:24:35 10° SSE visible
08 Oct ? 19:55:42 10° S 19:59:08 35° WSW 20:02:31 10° NW visible
